Probability
0 1 3 1 0 0 0 1 6 17 23 17 8 2 1 1 1 0 0 0 0 0 0 0 0 1 2 2 2 1 0 0 0 0 0 0 0 0 0 0 0 0 0
0 1 2 1 0 0 0 0 3 10 16 13 7 3 1 0 0 0 0 0 0 0 0 0 0 0 1 1 1 0 1 1 0 0 0 0 0 0 0 0 0 0 0
1 0 0 0 0 0 0 0 0 3 5 6 3 1 0 0 0 0 0 0 0 0 0 0 0 0 0 1 1 1 1 1 0 0 0 0 0 0 0 0 0 0 0
1 0 0 0 0 0 0 0 0 0 1 1 0 0 0 0 0 0 0 0 0 0 0 0 0 0 1 2 2 2 1 1 0 0 0 0 0 1 0 0 0 0 0
1 0 0 0 0 0 0 0 0 0 0 0 0 0 0 0 0 0 0 0 0 0 0 0 0 1 1 2 2 1 0 0 0 0 0 0 1 3 2 2 2 1 1
0 0 0 0 0 0 0 0 0 0 0 0 0 0 0 0 0 0 0 0 0 0 0 1 1 2 2 1 1 0 0 0 0 0 1 3 5 6 6 7 8 7 6
0 0 0 0 0 0 0 0 0 0 0 0 0 0 0 0 0 0 0 0 0 0 0 1 2 2 1 0 0 0 0 0 0 1 3 7 10 8 7 8 10 10 11
0 0 0 0 0 1 1 0 0 0 0 0 0 0 0 0 0 0 0 0 0 0 0 1 1 1 0 0 0 0 0 0 0 1 4 8 9 6 3 3 4 5 6
0 0 0 0 1 2 3 2 1 0 0 0 0 0 0 0 0 0 0 0 0 0 0 0 0 0 0 0 0 0 0 0 0 0 2 3 3 1 0 0 0 0 1
0 0 0 0 1 2 3 2 1 0 0 0 0 0 0 0 0 0 0 0 0 0 0 0 0 0 0 0 0 0 0 0 0 0 0 0 0 0 0 0 0 0 0
0 0 0 0 0 1 1 1 1 0 0 0 0 0 0 0 0 0 0 0 0 0 0 0 0 0 0 0 0 0 0 0 0 0 0 1 2 2 3 4 5 4 3
0 0 0 0 0 0 0 0 0 0 0 0 0 0 0 0 0 0 0 0 0 0 0 0 0 0 0 0 0 0 0 0 0 0 2 7 12 16 18 21 23 22 20
0 0 0 0 0 0 0 0 0 0 0 0 0 0 0 0 0 0 0 0 0 0 0 0 0 0 0 0 0 0 0 0 0 0 6 19 30 33 37 44 51 53 51
0 0 0 0 0 0 0 0 0 0 0 0 0 0 0 0 0 0 0 0 0 0 0 0 0 0 0 0 0 0 0 0 0 0 11 29 35 31 36 46 58 66 69
0 0 0 0 0 0 0 0 0 0 0 0 0 0 0 0 0 0 0 0 0 0 0 0 0 0 0 0 0 0 0 0 2 4 13 25 23 15 17 25 35 45 51
0 0 0 0 0 0 0 0 0 0 0 0 0 0 0 0 0 1 1 0 0 0 0 0 0 0 0 0 0 0 0 4 14 23 25 21 14 5 4 6 10 16 20
0 0 0 0 0 0 0 0 0 1 1 0 0 0 0 0 0 1 1 0 0 0 0 0 0 1 1 2 3 4 7 17 32 41 37 26 14 6 3 1 2 4 6
0 0 0 0 0 2 7 13 16 16 12 6 2 1 0 0 0 1 2 2 1 0 0 0 1 2 3 4 6 8 13 24 31 33 30 21 15 12 7 2 1 2 3
1 1 1 2 7 17 30 40 41 33 21 10 5 2 0 0 0 1 3 3 1 0 0 1 1 2 3 3 4 5 8 13 15 13 11 9 11 12 8 3 1 1 1
6 8 9 12 24 42 54 53 43 27 13 6 3 1 0 0 0 0 1 2 1 0 0 1 2 2 1 1 1 0 1 2 2 2 2 3 5 6 5 3 1 0 0
26 30 34 34 40 54 61 49 27 9 2 0 0 0 0 0 0 0 0 0 0 0 0 1 1 1 0 0 0 0 0 0 0 0 0 1 1 1 1 1 1 0 0
54 59 64 60 51 51 51 37 15 3 0 0 0 0 0 0 0 0 0 0 0 0 0 0 0 0 0 0 0 0 0 0 0 0 0 0 0 0 0 0 0 0 0
71 75 78 72 56 40 28 17 6 1 0 0 0 0 0 0 0 0 0 0 0 0 0 0 0 0 0 0 0 0 0 0 0 0 0 0 0 0 0 0 0 0 0
64 67 70 63 44 23 9 2 0 0 0 0 0 0 0 0 0 0 0 0 0 0 0 0 0 0 0 0 0 0 0 0 0 0 0 0 0 0 0 0 0 0 0
42 43 43 37 22 9 2 0 0 0 0 0 0 0 0 0 0 0 0 0 0 0 0 0 0 0 0 0 0 0 0 0 0 0 0 0 0 0 0 0 0 0 0
24 24 21 16 8 3 1 0 0 0 0 0 0 0 0 0 0 0 0 0 0 0 0 0 0 0 0 0 0 0 0 0 0 0 0 0 0 0 0 0 0 0 0
Wind_Speed
8 12 14 13 11 9 9 10 12 12 12 12 12 12 12 12 11 10 8 8 7 6 7 7 7 8 9 9 10 10 9 8 7 5 3 2 3 2 1 1 3 4 11
9 13 14 13 12 10 10 11 12 12 12 12 12 12 11 11 10 8 7 6 6 5 5 5 5 6 7 8 8 7 7 6 6 4 3 4 6 3 1 2 5 2 7
9 12 14 12 12 11 11 11 12 13 13 12 12 11 10 9 8 7 7 6 5 4 4 3 3 4 6 7 7 6 6 6 5 4 7 6 8 6 3 3 1 3 5
10 10 11 14 12 13 12 12 12 13 13 12 12 10 9 8 7 5 5 4 2 2 2 3 4 5 6 7 7 6 6 5 5 7 7 2 1 8 4 2 2 4 6
10 9 11 14 13 13 13 12 12 11 11 11 10 9 8 7 5 4 2 1 1 3 4 4 4 4 5 6 7 6 6 6 6 11 4 5 3 6 4 3 2 3 6
10 10 12 12 13 13 12 12 11 10 9 9 9 8 7 6 4 3 2 2 3 4 5 4 5 6 7 6 6 6 6 6 11 3 3 3 5 6 4 4 4 2 4
9 9 12 10 12 12 12 12 11 10 9 8 8 8 7 6 4 3 3 5 6 6 7 8 8 8 6 5 5 4 4 5 8 5 3 3 7 6 6 7 7 6 4
9 9 12 11 12 12 11 10 9 9 8 8 8 8 8 7 6 4 4 5 6 8 8 8 7 6 4 3 3 2 3 7 5 2 1 5 8 5 5 5 4 5 4
9 9 11 12 12 11 10 10 9 8 7 6 7 8 8 7 5 5 6 6 7 8 8 7 5 4 3 3 3 3 2 4 7 0 0 4 6 3 2 2 2 2 1
8 8 8 8 10 11 11 11 10 9 8 7 8 8 7 6 6 6 7 6 6 7 7 6 5 4 3 3 3 2 3 8 4 2 2 7 4 2 0 0 1 1 2
7 7 8 9 9 10 11 12 11 10 8 8 8 7 6 5 5 7 6 6 4 6 7 6 4 2 2 6 4 2 7 5 2 0 2 7 1 1 2 3 3 3 4
9 8 10 9 9 9 8 8 7 7 7 6 5 6 4 2 0 2 9 6 6 5 6 5 3 6 8 4 6 8 4 3 4 2 4 6 0 3 4 4 5 6 7
9 7 8 8 7 7 6 5 4 4 5 5 5 4 2 3 3 3 3 7 6 6 5 6 7 3 2 2 4 4 4 6 4 3 5 7 2 2 2 3 5 7 9
8 7 6 9 8 6 6 5 5 4 4 4 5 4 4 2 3 2 2 1 2 3 1 3 2 3 4 5 6 6 6 6 5 4 3 9 5 4 4 4 4 4 5
8 6 6 6 8 7 5 4 4 4 4 4 4 4 3 3 2 2 2 1 4 2 3 3 5 4 5 6 6 7 8 8 8 7 2 9 7 5 5 5 5 6 7
6 5 6 7 8 8 7 5 5 5 3 4 4 3 2 1 1 3 3 2 3 4 5 6 6 5 6 6 7 7 8 10 7 7 8 1 7 5 3 3 3 3 5
5 5 6 7 8 8 8 7 5 4 4 2 3 2 1 2 1 2 2 1 2 3 3 4 5 5 5 6 7 7 7 8 8 7 8 8 5 5 5 1 1 2 4
5 6 6 6 8 8 5 5 4 3 3 3 3 4 5 5 3 2 2 3 4 3 4 4 5 6 5 7 7 7 7 6 8 8 9 9 8 7 5 6 3 5 7
6 5 5 6 7 7 7 6 6 6 5 5 5 6 7 7 6 4 5 5 4 4 5 5 5 6 6 7 8 8 8 8 8 10 10 10 10 9 10 5 8 9 8
6 6 6 8 8 9 7 7 7 8 7 7 7 8 8 7 8 5 5 6 6 5 5 5 4 4 5 5 9 9 8 9 8 9 10 9 8 10 10 10 8 9 9
8 8 8 9 9 7 6 7 7 7 7 7 8 9 9 8 8 7 5 5 5 4 4 4 5 6 6 5 8 10 10 11 11 8 8 8 9 10 10 11 10 9 7
9 10 11 11 9 8 7 6 6 8 7 8 7 8 8 7 7 5 6 4 4 3 3 4 4 6 7 5 7 10 11 11 9 6 5 8 10 10 11 12 12 10 10
11 11 10 12 11 10 10 9 9 8 7 6 6 5 5 5 5 5 5 5 4 5 4 5 6 6 7 8 5 7 9 9 10 7 8 8 9 9 10 11 13 12 12
13 13 13 13 13 12 10 9 9 6 5 5 3 4 4 4 5 5 5 5 5 5 4 4 5 6 5 7 5 4 6 8 8 8 8 9 11 11 11 11 13 13 12
14 13 14 14 14 12 11 10 9 7 6 5 3 4 1 3 3 4 4 4 4 3 4 4 4 5 5 6 7 6 7 7 9 10 12 10 10 10 10 11 11 11 11
13 13 14 14 14 12 11 10 9 8 6 4 2 2 2 2 2 5 4 4 4 4 3 3 4 5 4 5 6 6 7 8 9 10 13 12 12 11 11 10 11 11 11
Wind_Direction
148 135 138 152 153 146 132 111 101 101 104 109 113 114 114 115 117 120 122 122 122 118 108 99 92 88 81 75 73 70 64 54 43 32 31 86 108 134 212 225 224 187 120
143 138 142 152 152 149 139 124 114 111 109 108 108 109 111 115 118 124 128 130 130 128 118 108 100 96 91 86 80 68 56 42 26 5 323 221 162 162 224 287 307 19 141
148 140 150 153 150 150 146 139 135 132 129 125 120 118 118 120 124 131 139 148 152 149 142 132 112 92 85 80 67 51 40 28 11 333 278 242 148 150 189 238 288 125 159
153 151 150 149 155 157 158 155 153 147 140 132 125 122 122 122 126 133 144 155 160 148 119 97 88 85 82 70 58 50 39 25 358 296 259 19 118 129 159 185 183 170 175
150 148 136 157 163 164 164 164 159 151 143 135 130 129 130 131 130 130 131 122 92 81 75 67 68 82 84 77 71 56 32 9 321 270 355 35 32 95 116 124 143 190 190
147 156 144 165 165 166 166 164 155 151 149 145 144 143 142 140 138 134 123 108 97 92 88 81 84 93 91 82 69 48 23 351 293 300 43 18 72 86 76 71 73 90 181
151 154 143 159 162 163 164 165 157 151 152 155 158 155 152 151 147 126 101 98 93 92 96 94 91 92 90 80 64 47 16 326 296 348 32 84 71 71 73 60 59 64 81
152 152 137 146 157 155 156 153 142 142 151 160 163 157 152 150 146 133 120 115 111 111 107 102 98 98 97 82 55 19 338 300 280 318 337 88 67 50 74 84 77 69 71
155 148 146 144 147 147 136 129 132 142 145 147 147 144 143 144 147 146 142 133 125 122 117 107 96 83 63 46 27 4 326 292 282 347 211 67 64 36 56 86 104 104 88
142 137 136 132 131 141 144 140 140 134 131 130 132 134 139 154 162 163 170 123 119 127 124 108 91 75 71 73 52 12 283 256 256 192 150 93 69 24 22 234 242 233 233
146 147 144 150 156 155 149 146 151 140 130 145 148 145 192 199 171 175 97 91 105 119 115 106 98 99 205 163 151 227 252 265 164 237 95 87 68 290 263 260 267 272 263
157 168 165 167 170 167 148 152 158 163 155 183 153 165 188 128 149 77 109 103 106 122 140 130 156 208 239 203 169 209 243 260 273 208 110 100 317 281 269 262 263 264 265
159 180 178 172 185 161 156 161 158 158 154 167 152 160 158 187 182 192 169 161 162 183 192 162 209 223 265 338 306 285 301 286 271 259 113 98 46 331 305 277 260 257 252
159 165 175 171 176 179 161 154 168 168 165 160 145 183 179 195 213 171 199 147 195 187 193 265 255 230 262 264 269 278 275 265 277 290 99 102 69 34 9 351 336 310 273
163 159 162 180 158 164 162 170 163 154 160 149 169 172 212 215 211 182 180 257 282 291 252 268 294 295 283 265 272 277 277 277 271 273 238 110 84 51 30 16 1 346 328
155 164 160 172 168 171 174 170 158 158 160 163 174 165 213 253 251 272 271 285 297 311 336 328 321 309 290 303 291 288 288 287 287 291 293 180 115 94 43 15 2 347 332
145 140 162 167 168 178 175 168 165 157 167 160 118 99 23 345 12 278 277 290 4 353 348 317 318 301 296 298 290 293 287 289 300 302 292 293 270 169 157 192 298 307 305
120 122 152 163 162 168 159 151 137 122 108 89 84 76 55 45 32 341 11 37 13 356 351 346 329 321 324 313 310 305 296 290 277 275 272 269 279 285 231 186 223 271 280
107 102 119 140 156 146 127 123 106 94 85 85 77 74 70 60 51 44 42 37 12 16 10 353 7 339 325 321 305 293 287 289 291 281 282 284 283 279 284 228 217 240 257
120 110 114 127 128 129 125 115 105 94 90 82 76 72 73 70 58 52 64 40 23 28 21 16 352 338 320 314 303 297 287 281 279 279 278 277 275 269 267 277 264 237 225
130 124 120 115 125 134 133 133 121 109 101 90 79 72 70 66 63 47 49 49 25 35 13 350 329 305 287 306 295 288 278 263 254 253 255 263 267 268 271 272 273 283 280
134 129 129 127 133 139 122 107 103 102 91 83 81 75 72 67 54 52 31 12 16 337 316 328 321 310 306 303 298 298 290 279 258 256 275 284 292 295 290 286 285 286 284
140 134 127 122 122 115 119 116 118 115 119 113 107 95 80 73 61 40 22 360 343 313 348 340 331 327 322 308 310 312 309 315 333 301 298 297 299 301 301 299 293 289 289
141 136 131 125 119 120 129 132 136 132 122 119 134 118 110 61 32 29 23 21 356 352 11 335 24 327 324 319 328 318 310 319 304 304 301 299 301 292 287 290 290 286 280
144 139 133 126 121 119 117 124 129 121 121 128 129 112 346 67 40 33 30 21 1 356 17 358 353 338 329 333 327 319 311 297 283 283 292 291 284 283 283 282 281 280 281
141 137 133 127 126 127 126 121 112 109 108 102 66 20 329 17 33 42 19 12 346 356 352 333 327 327 343 336 315 312 309 307 307 303 300 297 294 295 295 293 284 277 275